Weather History for Seward, AK

Change the Weather History Date:

Saturday, July 21, 2012

  Actual Average Record
Temperature  
Mean Temperature 52 °F -  
Max Temperature 53 °F 61 °F 80 °F (1955)
Min Temperature 51 °F 50 °F 43 °F (1971)
Degree Days  
Heating Degree Days 13    
Growing Degree Days 2 (Base 50)    
Moisture  
Dew Point 51 °F    
Average Humidity 96    
Maximum Humidity 100    
Minimum Humidity 88    
Precipitation  
Precipitation 1.04 in - - ()
Sea Level Pressure  
Sea Level Pressure 29.97 in    
Wind  
Wind Speed 6 mph (SSE)    
Max Wind Speed 13 mph    
Max Gust Speed -    
Visibility 6 miles    
Events Rain    
Averages and records for this station are not official NWS values.
T = Trace of Precipitation, MM = Missing Value Source: NWS Daily Summary

Daily Weather History Graph

Daily Weather History Graph

Search for Another Location

Airport:

Trip Planner

Search our weather history database for the weather conditions in past years. The results will help you decide how hot, cold, wet, or windy it might be!

Date:

Astronomy

Jul. 21, 2012 Rise Set
Actual Time 5:14 AM AKDT 10:52 PM AKDT
Civil Twilight 4:02 AM AKDT 12:02 AM AKDT
Nautical Twilight 2:36 AM AKDT 1:31 AM AKDT
Astronomical Twilight Sun does not rise Sun does not rise
Moon 9:13 AM AKDT (7/21) 10:52 PM AKDT (7/21)
Length of Visible Light 19h 59m
Length of Day
17h 38m
Waxing Crescent, 8% of the Moon is Illuminated
Jul 21
Waxing Crescent
Jul 26
First Quarter
Aug 1
Full
Aug 9
Last Quarter
Aug 17
New

Hourly Weather History & Observations

Time (AKDT) Temp. Dew Point Humidity Pressure Visibility Wind Dir Wind Speed Gust Speed Precip Events Conditions
12:53 AM 53.1 °F 51.1 °F 93% 29.98 in 10.0 mi SSE 10.4 mph - 0.00 in Rain Light Rain
1:17 AM 53.6 °F 51.8 °F 94% 29.98 in 10.0 mi SSE 10.4 mph - 0.01 in Rain Light Rain
1:26 AM 51.8 °F 51.8 °F 100% 29.98 in 10.0 mi SSE 10.4 mph - 0.01 in   Overcast
1:53 AM 53.1 °F 51.1 °F 93% 29.99 in 10.0 mi SSE 8.1 mph - 0.01 in   Overcast
2:15 AM 51.8 °F 51.8 °F 100% 29.97 in 10.0 mi SSE 5.8 mph - 0.00 in Rain Light Rain
2:42 AM 51.8 °F 51.8 °F 100% 29.97 in 10.0 mi South 5.8 mph - 0.01 in   Overcast
2:53 AM 53.1 °F 50.0 °F 89% 29.98 in 10.0 mi SSE 9.2 mph - 0.01 in   Overcast
3:06 AM 53.6 °F 50.0 °F 88% 29.97 in 10.0 mi SSE 8.1 mph - 0.01 in Rain Light Rain
3:23 AM 51.8 °F 50.0 °F 94% 29.97 in 10.0 mi SSE 9.2 mph - 0.01 in Rain Light Rain
3:53 AM 52.0 °F 50.0 °F 93% 29.97 in 5.0 mi SSE 8.1 mph - 0.03 in Rain Rain
4:09 AM 51.8 °F 50.0 °F 94% 29.97 in 7.0 mi SSE 8.1 mph - 0.01 in Rain Light Rain
4:23 AM 51.8 °F 50.0 °F 94% 29.97 in 10.0 mi SSE 9.2 mph - 0.01 in Rain Light Rain
4:39 AM 51.8 °F 50.0 °F 94% 29.97 in 10.0 mi SSE 12.7 mph - 0.01 in Rain Light Rain
4:53 AM 52.0 °F 50.0 °F 93% 29.98 in 9.0 mi South 4.6 mph - 0.02 in Rain Light Rain
5:02 AM 51.8 °F 50.0 °F 94% 29.97 in 10.0 mi South 4.6 mph - 0.00 in Rain Light Rain
5:17 AM 51.8 °F 50.0 °F 94% 29.97 in 7.0 mi SSE 6.9 mph - 0.01 in Rain Light Rain
5:31 AM 51.8 °F 50.0 °F 94% 29.97 in 10.0 mi SSE 5.8 mph - 0.01 in Rain Light Rain
5:53 AM 51.1 °F 50.0 °F 96% 29.97 in 4.0 mi SSE 6.9 mph - 0.05 in Rain Light Rain
6:12 AM 51.8 °F 50.0 °F 94% 29.98 in 9.0 mi SSE 6.9 mph - 0.01 in Rain Light Rain
6:53 AM 51.1 °F 50.0 °F 96% 29.98 in 10.0 mi Calm Calm - 0.01 in   Overcast
7:49 AM 53.6 °F 51.8 °F 94% 29.97 in 10.0 mi SE 4.6 mph - 0.01 in   Overcast
7:53 AM 53.1 °F 51.1 °F 93% 29.98 in 10.0 mi South 3.5 mph - 0.01 in   Overcast
8:53 AM 53.1 °F 51.1 °F 93% 29.98 in 10.0 mi Calm Calm - 0.00 in Rain Light Rain
9:15 AM 53.6 °F 51.8 °F 94% 29.97 in 10.0 mi Calm Calm - 0.00 in Rain Light Rain
9:53 AM 53.1 °F 51.1 °F 93% 29.97 in 4.0 mi Calm Calm - 0.04 in Rain Light Rain
10:42 AM 53.6 °F 51.8 °F 94% 29.97 in 3.0 mi SSW 3.5 mph - 0.02 in Rain Light Rain
10:53 AM 53.1 °F 51.1 °F 93% 29.97 in 7.0 mi South 3.5 mph - 0.02 in Rain Light Rain
11:44 AM 51.8 °F 51.8 °F 100% 29.97 in 2.5 mi SE 4.6 mph - 0.02 in Rain Light Rain
11:53 AM 53.1 °F 51.1 °F 93% 29.98 in 3.0 mi SSE 4.6 mph - 0.03 in Rain Light Rain
12:02 PM 51.8 °F 51.8 °F 100% 29.98 in 2.0 mi South 4.6 mph - 0.02 in Rain Rain
12:53 PM 52.0 °F 51.1 °F 97% 29.97 in 3.0 mi Variable 3.5 mph - 0.07 in Rain Light Rain
1:04 PM 51.8 °F 51.8 °F 100% 29.97 in 2.5 mi SSE 4.6 mph - 0.01 in Rain Light Rain
1:31 PM 51.8 °F 51.8 °F 100% 29.98 in 4.0 mi SSE 5.8 mph - 0.02 in Rain Light Rain
1:46 PM 51.8 °F 51.8 °F 100% 29.98 in 4.0 mi Calm Calm - 0.03 in Rain Light Rain
1:53 PM 52.0 °F 51.1 °F 97% 29.98 in 2.5 mi Variable 3.5 mph - 0.03 in Rain Light Rain
2:33 PM 51.8 °F 51.8 °F 100% 29.97 in 1.8 mi South 3.5 mph - 0.08 in Rain Rain
2:40 PM 51.8 °F 51.8 °F 100% 29.96 in 2.5 mi Variable 3.5 mph - 0.09 in Rain Rain
2:50 PM 51.8 °F 51.8 °F 100% 29.97 in 3.0 mi South 4.6 mph - 0.11 in Rain Light Rain
2:53 PM 52.0 °F 51.1 °F 97% 29.97 in 3.0 mi South 5.8 mph - 0.12 in Rain Light Rain
3:01 PM 51.8 °F 51.8 °F 100% 29.97 in 5.0 mi Variable 4.6 mph - 0.00 in Rain Light Rain
3:19 PM 51.8 °F 51.8 °F 100% 29.96 in 8.0 mi Variable 3.5 mph - 0.01 in Rain Light Rain
3:53 PM 52.0 °F 50.0 °F 93% 29.98 in 4.0 mi SSE 6.9 mph - 0.07 in Rain Rain
4:24 PM 51.8 °F 51.8 °F 100% 29.98 in 4.0 mi Variable 3.5 mph - 0.07 in Rain Rain
4:53 PM 52.0 °F 51.1 °F 97% 29.97 in 4.0 mi Calm Calm - 0.11 in Rain Light Rain
5:14 PM 51.8 °F 51.8 °F 100% 29.96 in 4.0 mi Calm Calm - 0.04 in Rain Rain
5:22 PM 51.8 °F 50.0 °F 94% 29.96 in 4.0 mi SSE 3.5 mph - 0.05 in Rain Rain
5:31 PM 51.8 °F 50.0 °F 94% 29.96 in 5.0 mi Calm Calm - 0.07 in Rain Rain
5:46 PM 53.6 °F 51.8 °F 94% 29.96 in 5.0 mi SSE 5.8 mph - 0.09 in Rain Light Rain
5:53 PM 52.0 °F 51.1 °F 97% 29.96 in 5.0 mi SSE 4.6 mph - 0.10 in Rain Light Rain
6:44 PM 51.8 °F 50.0 °F 94% 29.97 in 4.0 mi SSE 5.8 mph - 0.03 in Rain Light Rain
6:53 PM 52.0 °F 50.0 °F 93% 29.97 in 4.0 mi SSE 6.9 mph - 0.03 in Rain Light Rain
7:43 PM 51.8 °F 50.0 °F 94% 29.97 in 6.0 mi SSW 3.5 mph - 0.03 in Rain Light Rain
7:53 PM 52.0 °F 51.1 °F 97% 29.97 in 7.0 mi Calm Calm - 0.03 in Rain Light Rain
8:03 PM 51.8 °F 51.8 °F 100% 29.97 in 4.0 mi SE 4.6 mph - 0.01 in Rain Light Rain
8:11 PM 51.8 °F 51.8 °F 100% 29.97 in 3.0 mi Calm Calm - 0.01 in Rain Light Rain
8:26 PM 53.6 °F 51.8 °F 94% 29.97 in 3.0 mi Calm Calm - 0.02 in Rain Light Rain
8:53 PM 53.1 °F 52.0 °F 96% 29.98 in 2.5 mi Calm Calm - 0.06 in Rain Rain
9:03 PM 53.6 °F 51.8 °F 94% 29.97 in 4.0 mi Calm Calm - 0.01 in Rain Light Rain
9:10 PM 53.6 °F 51.8 °F 94% 29.97 in 3.0 mi Calm Calm - 0.01 in Rain Light Rain
9:26 PM 53.6 °F 51.8 °F 94% 29.97 in 5.0 mi Calm Calm - 0.02 in Rain Light Rain
9:41 PM 53.6 °F 51.8 °F 94% 29.97 in 2.5 mi Calm Calm - 0.04 in Rain Light Rain
9:49 PM 51.8 °F 51.8 °F 100% 29.97 in 5.0 mi Calm Calm - 0.04 in Rain Light Rain
9:53 PM 52.0 °F 51.1 °F 97% 29.97 in 7.0 mi Calm Calm - 0.04 in Rain Light Rain
10:53 PM 52.0 °F 51.1 °F 97% 29.96 in 6.0 mi Calm Calm - 0.10 in Rain Light Rain
11:09 PM 51.8 °F 51.8 °F 100% 29.95 in 5.0 mi Calm Calm - 0.01 in Rain Light Rain
11:26 PM 51.8 °F 51.8 °F 100% 29.95 in 5.0 mi Calm Calm - 0.02 in Rain Light Rain
11:53 PM 52.0 °F 51.1 °F 97% 29.95 in 5.0 mi Calm Calm - 0.05 in Rain Light Rain